Location: Aalen
(48.8330°N, 10.1000°E)
Time: 18:39:11
(UTC+02:00)

UNISAT 6 - Pass Details

Date: 07 April 2023
Orbit: 599 x 680 km, 97.7° (Epoch: 04 June)

Event Time Altitude Azimuth Distance (km) Brightness Sun altitude
Rises 04:46:06 0° 126° (SE) 2,963 ? -18.9°
Reaches altitude 10° 04:48:41 10° 112° (ESE) 2,071 ? -18.5°
Maximum altitude 04:52:08 22° 62° (ENE) 1,453 ? -18.0°
Drops below altitude 10° 04:55:40 10° 12° (NNE) 2,115 ? -17.6°
Sets 04:58:19 0° 358° (N) 3,043 ? -17.2°
